Location: Chuathbaluk
(61.5726°N, 159.2454°W)
Time: 16:42:15
(UTC+00:00)

ITAMSAT 1 - Pass Details

Date: 19 January 2021
Orbit: 784 x 796 km, 98.9° (Epoch: 05 March)

Event Time Altitude Azimuth Distance (km) Brightness Sun altitude
Rises 05:27:36 0° 207° (SSW) 3,277 11.3 -22.5°
Reaches altitude 10° 05:30:27 10° 223° (SW) 2,351 10.7 -22.8°
Maximum altitude 05:34:23 22° 273° (W) 1,690 10.2 -23.3°
Drops below altitude 10° 05:38:21 10° 323° (NW) 2,359 10.6 -23.7°
Sets 05:41:14 0° 339° (NNW) 3,292 11.2 -24.1°
